Location: Molalla
(45.1473°N, 122.5770°W)
Time: 11:59:30
(UTC-08:00)

A-11 Canister half - Visible Passes

Search period start: 13 November 2019 00:00
Search period end: 23 November 2019 00:00
Orbit: 1514 x 1686 km, 47.2° (Epoch: 13 November)

Date Brightness Start Highest point End Pass type
(mag) Time Alt. Az. Time Alt. Az. Time Alt. Az.
13 Nov 9.7 18:08:41 10° SSW 18:17:37 37° SE 18:22:51 23° E visible
13 Nov 9.0 20:11:40 10° WSW 20:21:03 76° SSW 20:21:03 76° SSW visible
13 Nov 10.9 22:17:01 10° W 22:19:16 19° W 22:19:16 19° W visible
14 Nov 9.8 17:46:00 10° SSW 17:54:44 35° SE 18:01:21 17° E visible
14 Nov 8.9 19:48:44 10° WSW 19:58:54 79° SSE 19:59:34 76° ESE visible
14 Nov 10.5 21:54:02 10° W 21:57:46 27° W 21:57:46 27° W visible
15 Nov 9.9 17:23:19 10° SSW 17:31:53 33° SE 17:39:49 12° ENE visible
15 Nov 9.0 19:25:50 10° WSW 19:35:57 76° SSE 19:38:01 61° E visible
15 Nov 10.2 21:31:03 10° W 21:36:14 36° W 21:36:14 36° W visible
16 Nov 10.0 17:00:39 10° S 17:09:01 31° SE 17:17:29 10° ENE visible
16 Nov 9.1 19:02:55 10° SW 19:13:00 74° SSE 19:16:26 47° E visible
16 Nov 9.8 21:08:03 10° W 21:14:38 47° W 21:14:38 47° W visible
17 Nov 9.1 18:40:01 10° SW 18:50:04 72° SSE 18:54:49 37° ENE visible
17 Nov 9.4 20:45:04 10° W 20:53:01 60° WNW 20:53:01 60° WNW visible
17 Nov 11.2 22:50:35 10° WNW 22:51:13 12° WNW 22:51:13 12° WNW visible
18 Nov 9.2 18:17:08 10° SW 18:27:07 69° SSE 18:33:10 28° ENE visible
18 Nov 9.1 20:22:04 10° W 20:31:22 75° WNW 20:31:22 75° WNW visible
18 Nov 10.9 22:27:35 10° WNW 22:29:34 18° WNW 22:29:34 18° WNW visible
19 Nov 9.2 17:54:15 10° SW 18:04:11 67° SSE 18:11:30 21° ENE visible
19 Nov 9.0 19:59:06 10° W 20:09:20 81° N 20:09:42 80° NNE visible
19 Nov 10.7 22:04:37 10° WNW 22:07:54 24° WNW 22:07:54 24° WNW visible
20 Nov 9.3 17:31:24 10° SW 17:41:16 64° SSE 17:49:49 16° ENE visible
20 Nov 9.0 19:36:08 10° W 19:46:21 82° N 19:48:01 67° ENE visible
20 Nov 10.3 21:41:39 10° WNW 21:46:13 32° WNW 21:46:13 32° WNW visible
21 Nov 9.4 17:08:33 10° SW 17:18:20 62° SSE 17:28:07 11° ENE visible
21 Nov 9.1 19:13:09 10° W 19:23:21 83° N 19:26:18 54° ENE visible
21 Nov 10.0 21:18:40 10° WNW 21:24:30 41° WNW 21:24:30 41° WNW visible
22 Nov 9.1 18:50:11 10° W 19:00:22 84° NNW 19:04:36 42° ENE visible
22 Nov 9.6 20:55:42 10° WNW 21:02:47 52° WNW 21:02:47 52° WNW visible
